| time (UTC) | temp C | wind direction | speed KPH | gust KPH | rain 1hr cm | rain 24hr cm | rain mn cm | humidity % | barometer mb |
| 20260902170823 | 33 | 325 | 0.0 | 3.2 | 0.00 | 0.00 | 0.00 | 54 | 1017.4 |
| 20260902170318 | 33 | 315 | 0.0 | 4.8 | 0.00 | 0.00 | 0.00 | 55 | 1017.5 |
| 20260902165814 | 33 | 120 | 1.6 | 9.7 | 0.00 | 0.00 | 0.00 | 56 | 1017.6 |
| 20260902165313 | 33 | 54 | 0.0 | 3.2 | 0.00 | 0.00 | 0.00 | 56 | 1017.6 |
| 20260902164808 | 33 | 210 | 0.0 | 4.8 | 0.00 | 0.00 | 0.00 | 56 | 1017.7 |
| 20260902164303 | 33 | 138 | 3.2 | 6.4 | 0.00 | 0.00 | 0.00 | 54 | 1017.5 |
| 20260902163757 | 33 | 205 | 0.0 | 3.2 | 0.00 | 0.00 | 0.00 | 57 | 1017.6 |
| 20260902163257 | 33 | 195 | 0.0 | 3.2 | 0.00 | 0.00 | 0.00 | 55 | 1017.7 |
| 20260902162755 | 33 | 317 | 1.6 | 4.8 | 0.00 | 0.00 | 0.00 | 56 | 1017.6 |
| 20260902162250 | 33 | 153 | 8.0 | 8.0 | 0.00 | 0.00 | 0.00 | 56 | 1017.8 |
| 20260902161745 | 33 | 140 | 3.2 | 3.2 | 0.00 | 0.00 | 0.00 | 54 | 1017.6 |
| 20260902161241 | 33 | 173 | 0.0 | 3.2 | 0.00 | 0.00 | 0.00 | 56 | 1017.8 |
| 20260902160737 | 33 | 345 | 0.0 | 4.8 | 0.00 | 0.00 | 0.00 | 60 | 1017.8 |
| 20260902160232 | 33 | 60 | 0.0 | 3.2 | 0.00 | 0.00 | 0.00 | 58 | 1018.0 |
| 20260902155730 | 33 | 218 | 0.0 | 3.2 | 0.00 | 0.00 | 0.00 | 57 | 1017.8 |
| 20260902155229 | 33 | 229 | 1.6 | 4.8 | 0.00 | 0.00 | 0.00 | 58 | 1017.9 |
| 20260902154724 | 33 | 137 | 0.0 | 3.2 | 0.00 | 0.00 | 0.00 | 57 | 1017.8 |
| 20260902154225 | 32 | 150 | 0.0 | 3.2 | 0.00 | 0.00 | 0.00 | 57 | 1017.9 |
| 20260902153723 | 33 | 172 | 4.8 | 4.8 | 0.00 | 0.00 | 0.00 | 56 | 1017.9 |
| 20260902153218 | 33 | 105 | 0.0 | 3.2 | 0.00 | 0.00 | 0.00 | 55 | 1017.9 |
| 20260902152714 | 33 | 269 | 0.0 | 3.2 | 0.00 | 0.00 | 0.00 | 56 | 1018.0 |
| 20260902152210 | 33 | 159 | 3.2 | 6.4 | 0.00 | 0.00 | 0.00 | 55 | 1018.0 |
| 20260902151705 | 33 | 104 | 0.0 | 3.2 | 0.00 | 0.00 | 0.00 | 56 | 1017.7 |
| 20260902151159 | 33 | 250 | 3.2 | 6.4 | 0.00 | 0.00 | 0.00 | 56 | 1018.0 |
| 20260902150654 | 33 | 351 | 3.2 | 4.8 | 0.00 | 0.00 | 0.00 | 57 | 1017.8 |
| 20260902150150 | 33 | 242 | 3.2 | 3.2 | 0.00 | 0.00 | 0.00 | 56 | 1018.1 |
| 20260902145649 | 32 | 168 | 0.0 | 3.2 | 0.00 | 0.00 | 0.00 | 58 | 1018.3 |
| 20260902145149 | 32 | 192 | 3.2 | 3.2 | 0.00 | 0.00 | 0.00 | 59 | 1018.1 |
| 20260902144646 | 32 | 324 | 3.2 | 4.8 | 0.00 | 0.00 | 0.00 | 60 | 1018.1 |
| 20260902144141 | 31 | 190 | 3.2 | 8.0 | 0.00 | 0.00 | 0.00 | 61 | 1017.9 |
| 20260902143636 | 31 | 20 | 0.0 | 1.6 | 0.00 | 0.00 | 0.00 | 64 | 1018.0 |
| 20260902143137 | 30 | 329 | 1.6 | 1.6 | 0.00 | 0.00 | 0.00 | 67 | 1017.8 |
| 20260902142632 | 29 | 269 | 0.0 | 3.2 | 0.00 | 0.00 | 0.00 | 68 | 1018.1 |
| 20260902142128 | 29 | 117 | 0.0 | 6.4 | 0.00 | 0.00 | 0.00 | 69 | 1017.8 |
| 20260902141627 | 28 | 261 | 0.0 | 3.2 | 0.00 | 0.00 | 0.00 | 69 | 1017.9 |
| 20260902141123 | 28 | 167 | 0.0 | 3.2 | 0.00 | 0.00 | 0.00 | 69 | 1018.1 |
| 20260902140618 | 28 | 235 | 1.6 | 1.6 | 0.00 | 0.00 | 0.00 | 71 | 1017.9 |
| 20260902140114 | 28 | 263 | 0.0 | 4.8 | 0.00 | 0.00 | 0.00 | 71 | 1018.4 |
| 20260902135613 | 28 | 117 | 0.0 | 1.6 | 0.00 | 0.00 | 0.00 | 71 | 1018.4 |
| 20260902135108 | 28 | 135 | 0.0 | 3.2 | 0.00 | 0.00 | 0.00 | 72 | 1018.6 |
| 20260902134603 | 28 | 62 | 0.0 | 3.2 | 0.00 | 0.00 | 0.00 | 72 | 1018.5 |
| 20260902134103 | 27 | 187 | 0.0 | 1.6 | 0.00 | 0.00 | 0.00 | 73 | 1018.3 |
| 20260902133558 | 27 | 327 | 1.6 | 3.2 | 0.00 | 0.00 | 0.00 | 72 | 1018.6 |
| 20260902133058 | 27 | 148 | 0.0 | 1.6 | 0.00 | 0.00 | 0.00 | 72 | 1018.6 |
| 20260902132553 | 27 | 113 | 0.0 | 3.2 | 0.00 | 0.00 | 0.00 | 73 | 1018.6 |
| 20260902132049 | 27 | 26 | 0.0 | 3.2 | 0.00 | 0.00 | 0.00 | 72 | 1018.3 |
| 20260902131545 | 27 | 233 | 0.0 | 3.2 | 0.00 | 0.00 | 0.00 | 72 | 1018.5 |
| 20260902131045 | 28 | 22 | 0.0 | 1.6 | 0.00 | 0.00 | 0.00 | 71 | 1018.5 |
| 20260902130541 | 28 | 95 | 0.0 | 1.6 | 0.00 | 0.00 | 0.00 | 71 | 1018.4 |
| 20260902130036 | 28 | 107 | 0.0 | 3.2 | 0.00 | 0.00 | 0.00 | 69 | 1018.0 |
| 20260902125532 | 28 | 85 | 0.0 | 3.2 | 0.00 | 0.00 | 0.00 | 70 | 1018.4 |
| 20260902125028 | 28 | 27 | 1.6 | 1.6 | 0.00 | 0.00 | 0.00 | 72 | 1018.4 |
| 20260902124525 | 27 | 58 | 0.0 | 3.2 | 0.00 | 0.00 | 0.00 | 75 | 1018.3 |
| 20260902124024 | 26 | 135 | 0.0 | 1.6 | 0.00 | 0.00 | 0.00 | 79 | 1018.3 |
| 20260902123520 | 25 | 96 | 1.6 | 3.2 | 0.00 | 0.00 | 0.00 | 81 | 1018.5 |
| 20260902123021 | 25 | 66 | 0.0 | 3.2 | 0.00 | 0.00 | 0.00 | 83 | 1018.5 |
| 20260902122520 | 25 | 62 | 0.0 | 3.2 | 0.00 | 0.00 | 0.00 | 83 | 1018.3 |
| 20260902122015 | 24 | 124 | 0.0 | 1.6 | 0.00 | 0.00 | 0.00 | 84 | 1018.6 |
| 20260902121510 | 24 | 111 | 0.0 | 1.6 | 0.00 | 0.00 | 0.00 | 84 | 1018.4 |
| 20260902121005 | 24 | 47 | 0.0 | 1.6 | 0.00 | 0.00 | 0.00 | 85 | 1018.1 |
| 20260902120502 | 23 | 133 | 1.6 | 3.2 | 0.00 | 0.00 | 0.00 | 85 | 1018.3 |
| 20260902120001 | 23 | 113 | 0.0 | 3.2 | 0.00 | 0.00 | 0.00 | 86 | 1018.5 |
| 20260902115457 | 23 | 68 | 0.0 | 3.2 | 0.00 | 0.00 | 0.00 | 87 | 1018.5 |
| 20260902114954 | 23 | 141 | 0.0 | 1.6 | 0.00 | 0.00 | 0.00 | 87 | 1018.3 |
| 20260902114449 | 23 | 107 | 0.0 | 1.6 | 0.00 | 0.00 | 0.00 | 87 | 1018.3 |
| 20260902113944 | 23 | 80 | 0.0 | 3.2 | 0.00 | 0.00 | 0.00 | 87 | 1018.3 |
| 20260902113440 | 23 | 132 | 0.0 | 3.2 | 0.00 | 0.00 | 0.00 | 87 | 1018.1 |
| 20260902112939 | 23 | 84 | 1.6 | 3.2 | 0.00 | 0.00 | 0.00 | 87 | 1018.3 |
| 20260902112436 | 23 | 59 | 0.0 | 3.2 | 0.00 | 0.00 | 0.00 | 87 | 1018.0 |
| 20260902111932 | 23 | 70 | 0.0 | 1.6 | 0.00 | 0.00 | 0.00 | 87 | 1017.9 |
| 20260902111428 | 23 | 89 | 0.0 | 3.2 | 0.00 | 0.00 | 0.00 | 87 | 1017.9 |
| 20260902110924 | 23 | 87 | 0.0 | 1.6 | 0.00 | 0.00 | 0.00 | 87 | 1018.1 |
| 20260902110420 | 23 | 98 | 1.6 | 3.2 | 0.00 | 0.00 | 0.00 | 87 | 1017.9 |
| 20260902105919 | 23 | 117 | 0.0 | 1.6 | 0.00 | 0.00 | 0.00 | 86 | 1017.8 |
| 20260902105415 | 23 | 94 | 0.0 | 1.6 | 0.00 | 0.00 | 0.00 | 86 | 1017.7 |
| 20260902104910 | 23 | 89 | 0.0 | 3.2 | 0.00 | 0.00 | 0.00 | 86 | 1017.9 |
| 20260902104406 | 23 | 113 | 0.0 | 3.2 | 0.00 | 0.00 | 0.00 | 86 | 1017.7 |
| 20260902103905 | 23 | 89 | 0.0 | 1.6 | 0.00 | 0.00 | 0.00 | 85 | 1017.6 |
| 20260902103400 | 23 | 126 | 0.0 | 1.6 | 0.00 | 0.00 | 0.00 | 85 | 1017.6 |
| 20260902102855 | 23 | 72 | 0.0 | 1.6 | 0.00 | 0.00 | 0.00 | 85 | 1017.4 |
| 20260902102353 | 23 | 44 | 0.0 | 1.6 | 0.00 | 0.00 | 0.00 | 84 | 1017.4 |
| 20260902101848 | 24 | 129 | 0.0 | 3.2 | 0.00 | 0.00 | 0.00 | 84 | 1017.4 |
| 20260902101343 | 24 | 102 | 0.0 | 3.2 | 0.00 | 0.00 | 0.00 | 84 | 1017.5 |
| 20260902100842 | 24 | 89 | 0.0 | 3.2 | 0.00 | 0.00 | 0.00 | 84 | 1017.4 |
| 20260902100342 | 24 | 111 | 1.6 | 1.6 | 0.00 | 0.00 | 0.00 | 84 | 1017.5 |
| 20260902095837 | 24 | 49 | 1.6 | 1.6 | 0.00 | 0.00 | 0.00 | 84 | 1017.4 |
| 20260902095331 | 24 | 89 | 1.6 | 3.2 | 0.00 | 0.00 | 0.00 | 84 | 1017.5 |
| 20260902094831 | 24 | 63 | 0.0 | 1.6 | 0.00 | 0.00 | 0.00 | 83 | 1017.3 |
| 20260902094327 | 24 | 94 | 0.0 | 1.6 | 0.00 | 0.00 | 0.00 | 83 | 1017.2 |
| 20260902093827 | 24 | 113 | 0.0 | 1.6 | 0.00 | 0.00 | 0.00 | 83 | 1017.3 |
| 20260902093322 | 24 | 145 | 0.0 | 1.6 | 0.00 | 0.00 | 0.00 | 82 | 1017.4 |
| 20260902092821 | 24 | 121 | 1.6 | 1.6 | 0.00 | 0.00 | 0.00 | 82 | 1017.3 |
| 20260902092317 | 24 | 89 | 0.0 | 1.6 | 0.00 | 0.00 | 0.00 | 82 | 1017.3 |
| 20260902091816 | 25 | 135 | 0.0 | 3.2 | 0.00 | 0.00 | 0.00 | 82 | 1017.3 |
| 20260902091312 | 25 | 122 | 0.0 | 1.6 | 0.00 | 0.00 | 0.00 | 82 | 1017.3 |
| 20260902090809 | 25 | 195 | 0.0 | 3.2 | 0.00 | 0.00 | 0.00 | 82 | 1017.2 |
| 20260902090308 | 25 | 50 | 0.0 | 0.0 | 0.00 | 0.00 | 0.00 | 82 | 1017.3 |
| 20260902085808 | 25 | 70 | 0.0 | 3.2 | 0.00 | 0.00 | 0.00 | 82 | 1017.2 |
| 20260902085306 | 25 | 112 | 1.6 | 3.2 | 0.00 | 0.00 | 0.00 | 82 | 1017.2 |
| 20260902084759 | 25 | 29 | 1.6 | 3.2 | 0.00 | 0.00 | 0.00 | 83 | 1017.1 |
| 20260902084255 | 25 | 85 | 1.6 | 3.2 | 0.00 | 0.00 | 0.00 | 83 | 1017.1 |
| 20260902083750 | 25 | 68 | 0.0 | 3.2 | 0.00 | 0.00 | 0.00 | 83 | 1017.1 |
| 20260902083249 | 25 | 79 | 0.0 | 3.2 | 0.00 | 0.00 | 0.00 | 83 | 1017.0 |
| 20260902082744 | 25 | 104 | 0.0 | 1.6 | 0.00 | 0.00 | 0.00 | 83 | 1017.0 |
| 20260902082241 | 25 | 134 | 1.6 | 3.2 | 0.00 | 0.00 | 0.00 | 83 | 1016.8 |
| 20260902081737 | 25 | 119 | 1.6 | 3.2 | 0.00 | 0.00 | 0.00 | 83 | 1016.9 |
| 20260902081233 | 25 | 50 | 0.0 | 0.0 | 0.00 | 0.00 | 0.00 | 83 | 1017.0 |
| 20260902080727 | 25 | 116 | 0.0 | 1.6 | 0.00 | 0.00 | 0.00 | 83 | 1016.9 |
| 20260902080225 | 25 | 104 | 0.0 | 1.6 | 0.00 | 0.00 | 0.00 | 83 | 1016.8 |
| 20260902075723 | 25 | 89 | 0.0 | 3.2 | 0.00 | 0.00 | 0.00 | 83 | 1016.7 |
| 20260902075220 | 25 | 89 | 0.0 | 1.6 | 0.00 | 0.00 | 0.00 | 83 | 1016.7 |
| 20260902074719 | 25 | 89 | 0.0 | 0.0 | 0.00 | 0.00 | 0.00 | 83 | 1016.8 |
| 20260902074215 | 25 | 62 | 0.0 | 0.0 | 0.00 | 0.00 | 0.00 | 82 | 1016.7 |
| 20260902073710 | 25 | 89 | 0.0 | 1.6 | 0.00 | 0.00 | 0.00 | 82 | 1016.9 |
| 20260902073206 | 25 | 96 | 0.0 | 1.6 | 0.00 | 0.00 | 0.00 | 82 | 1016.8 |
| 20260902072702 | 25 | 79 | 0.0 | 0.0 | 0.00 | 0.00 | 0.00 | 82 | 1016.9 |
| 20260902072158 | 25 | 75 | 0.0 | 0.0 | 0.00 | 0.00 | 0.00 | 81 | 1017.1 |
| 20260902071654 | 25 | 114 | 0.0 | 1.6 | 0.00 | 0.00 | 0.00 | 81 | 1016.9 |
| 20260902071149 | 25 | 75 | 0.0 | 0.0 | 0.00 | 0.00 | 0.00 | 81 | 1017.0 |
| 20260902070645 | 25 | 98 | 0.0 | 1.6 | 0.00 | 0.00 | 0.00 | 80 | 1016.8 |
| 20260902070144 | 26 | 62 | 0.0 | 0.0 | 0.00 | 0.00 | 0.00 | 80 | 1017.0 |
| 20260902065643 | 26 | 103 | 0.0 | 1.6 | 0.00 | 0.00 | 0.00 | 79 | 1016.9 |
| 20260902065139 | 26 | 117 | 0.0 | 1.6 | 0.00 | 0.00 | 0.00 | 79 | 1017.0 |
| 20260902064634 | 26 | 114 | 0.0 | 3.2 | 0.00 | 0.00 | 0.00 | 79 | 1016.7 |
| 20260902064130 | 26 | 129 | 0.0 | 1.6 | 0.00 | 0.00 | 0.00 | 79 | 1016.9 |
| 20260902063625 | 26 | 75 | 0.0 | 1.6 | 0.00 | 0.00 | 0.00 | 79 | 1016.9 |
| 20260902063120 | 26 | 110 | 0.0 | 1.6 | 0.00 | 0.00 | 0.00 | 78 | 1016.8 |
| 20260902062619 | 26 | 62 | 0.0 | 1.6 | 0.00 | 0.00 | 0.00 | 78 | 1017.0 |
| 20260902062115 | 26 | 113 | 1.6 | 1.6 | 0.00 | 0.00 | 0.00 | 78 | 1016.9 |
| 20260902061614 | 26 | 103 | 0.0 | 0.0 | 0.00 | 0.00 | 0.00 | 78 | 1017.0 |
| 20260902061110 | 26 | 112 | 0.0 | 1.6 | 0.00 | 0.00 | 0.00 | 77 | 1017.1 |
| 20260902060606 | 26 | 113 | 0.0 | 1.6 | 0.00 | 0.00 | 0.00 | 77 | 1016.9 |
| 20260902055558 | 26 | 129 | 0.0 | 1.6 | 0.00 | 0.00 | 0.00 | 77 | 1017.0 |
| 20260902055053 | 26 | 129 | 0.0 | 1.6 | 0.00 | 0.00 | 0.00 | 76 | 1017.3 |
| 20260902054548 | 26 | 150 | 0.0 | 1.6 | 0.00 | 0.00 | 0.00 | 76 | 1017.1 |
| 20260902054044 | 27 | 76 | 0.0 | 0.0 | 0.00 | 0.00 | 0.00 | 76 | 1017.0 |
| 20260902053539 | 27 | 104 | 0.0 | 0.0 | 0.00 | 0.00 | 0.00 | 76 | 1017.0 |
| 20260902053038 | 27 | 129 | 0.0 | 0.0 | 0.00 | 0.00 | 0.00 | 76 | 1016.8 |
| 20260902052533 | 27 | 101 | 0.0 | 1.6 | 0.00 | 0.00 | 0.00 | 76 | 1016.8 |
| 20260902052029 | 27 | 104 | 0.0 | 1.6 | 0.00 | 0.00 | 0.00 | 75 | 1017.0 |
| 20260902051528 | 27 | 117 | 0.0 | 0.0 | 0.00 | 0.00 | 0.00 | 75 | 1016.8 |
| 20260902051027 | 27 | 49 | 0.0 | 1.6 | 0.00 | 0.00 | 0.00 | 75 | 1016.9 |
| 20260902050522 | 27 | 124 | 3.2 | 4.8 | 0.00 | 0.00 | 0.00 | 74 | 1017.0 |
| 20260902050018 | 27 | 142 | 0.0 | 1.6 | 0.00 | 0.00 | 0.00 | 74 | 1016.8 |
| 20260902045513 | 27 | 89 | 0.0 | 1.6 | 0.00 | 0.00 | 0.00 | 74 | 1016.7 |
| 20260902045010 | 27 | 78 | 1.6 | 1.6 | 0.00 | 0.00 | 0.00 | 74 | 1016.7 |
| 20260902044509 | 27 | 155 | 0.0 | 1.6 | 0.00 | 0.00 | 0.00 | 74 | 1016.7 |
| 20260902044006 | 27 | 89 | 0.0 | 0.0 | 0.00 | 0.00 | 0.00 | 74 | 1016.8 |
| 20260902043500 | 27 | 44 | 0.0 | 0.0 | 0.00 | 0.00 | 0.00 | 73 | 1017.0 |
| 20260902042955 | 27 | 111 | 0.0 | 3.2 | 0.00 | 0.00 | 0.00 | 73 | 1016.9 |
| 20260902042455 | 27 | 141 | 1.6 | 3.2 | 0.00 | 0.00 | 0.00 | 73 | 1017.0 |
| 20260902041950 | 27 | 141 | 0.0 | 3.2 | 0.00 | 0.00 | 0.00 | 73 | 1016.9 |
| 20260902041450 | 27 | 89 | 0.0 | 1.6 | 0.00 | 0.00 | 0.00 | 73 | 1016.9 |
| 20260902040951 | 27 | 104 | 0.0 | 3.2 | 0.00 | 0.00 | 0.00 | 73 | 1017.1 |
| 20260902040450 | 27 | 114 | 1.6 | 3.2 | 0.00 | 0.00 | 0.00 | 73 | 1016.8 |
| 20260902035949 | 27 | 190 | 0.0 | 1.6 | 0.00 | 0.00 | 0.00 | 73 | 1017.1 |
| 20260902035445 | 28 | 124 | 0.0 | 0.0 | 0.00 | 0.00 | 0.00 | 73 | 1016.9 |
| 20260902034944 | 28 | 119 | 0.0 | 1.6 | 0.00 | 0.00 | 0.00 | 72 | 1016.9 |
| 20260902034439 | 28 | 118 | 0.0 | 0.0 | 0.00 | 0.00 | 0.00 | 72 | 1016.9 |
| 20260902033939 | 28 | 121 | 0.0 | 3.2 | 0.00 | 0.00 | 0.00 | 72 | 1016.8 |
| 20260902033438 | 28 | 119 | 1.6 | 3.2 | 0.00 | 0.00 | 0.00 | 72 | 1016.8 |
| 20260902032937 | 28 | 96 | 1.6 | 3.2 | 0.00 | 0.00 | 0.00 | 73 | 1016.9 |
| 20260902032432 | 28 | 154 | 0.0 | 1.6 | 0.00 | 0.00 | 0.00 | 72 | 1016.9 |
| 20260902031927 | 28 | 135 | 0.0 | 0.0 | 0.00 | 0.00 | 0.00 | 72 | 1017.1 |
| 20260902031422 | 28 | 121 | 0.0 | 1.6 | 0.00 | 0.00 | 0.00 | 72 | 1017.2 |
| 20260902030919 | 28 | 62 | 0.0 | 3.2 | 0.00 | 0.00 | 0.00 | 72 | 1017.0 |
| 20260902030418 | 28 | 89 | 0.0 | 3.2 | 0.00 | 0.00 | 0.00 | 72 | 1017.0 |
| 20260902025917 | 28 | 122 | 0.0 | 0.0 | 0.00 | 0.00 | 0.00 | 73 | 1017.1 |
| 20260902025413 | 28 | 116 | 0.0 | 1.6 | 0.00 | 0.00 | 0.00 | 72 | 1017.0 |
| 20260902024908 | 28 | 117 | 0.0 | 1.6 | 0.00 | 0.00 | 0.00 | 72 | 1017.0 |
| 20260902024403 | 28 | 126 | 0.0 | 1.6 | 0.00 | 0.00 | 0.00 | 72 | 1017.0 |
| 20260902023858 | 28 | 135 | 0.0 | 1.6 | 0.00 | 0.00 | 0.00 | 72 | 1017.0 |
| 20260902023354 | 28 | 134 | 3.2 | 3.2 | 0.00 | 0.00 | 0.00 | 72 | 1017.0 |
| 20260902022853 | 28 | 89 | 0.0 | 3.2 | 0.00 | 0.00 | 0.00 | 72 | 1016.8 |
| 20260902022348 | 28 | 89 | 0.0 | 1.6 | 0.00 | 0.00 | 0.00 | 71 | 1016.9 |
| 20260902021845 | 28 | 217 | 0.0 | 3.2 | 0.00 | 0.00 | 0.00 | 72 | 1016.8 |
| 20260902021344 | 28 | 60 | 0.0 | 0.0 | 0.00 | 0.00 | 0.00 | 71 | 1016.8 |
| 20260902020840 | 28 | 150 | 0.0 | 0.0 | 0.00 | 0.00 | 0.00 | 71 | 1016.7 |
| 20260902020336 | 28 | 129 | 0.0 | 1.6 | 0.00 | 0.00 | 0.00 | 71 | 1016.8 |
| 20260902015837 | 28 | 89 | 0.0 | 0.0 | 0.00 | 0.00 | 0.00 | 71 | 1016.6 |
| 20260902015332 | 28 | 104 | 0.0 | 1.6 | 0.00 | 0.00 | 0.00 | 71 | 1016.7 |
| 20260902014828 | 28 | 62 | 0.0 | 0.0 | 0.00 | 0.00 | 0.00 | 71 | 1016.7 |
| 20260902014324 | 28 | 62 | 0.0 | 0.0 | 0.00 | 0.00 | 0.00 | 70 | 1016.6 |
| 20260902013823 | 28 | 124 | 0.0 | 0.0 | 0.00 | 0.00 | 0.00 | 70 | 1016.6 |
| 20260902013319 | 28 | 124 | 0.0 | 0.0 | 0.00 | 0.00 | 0.00 | 69 | 1016.7 |
| 20260902012814 | 28 | 104 | 0.0 | 0.0 | 0.00 | 0.00 | 0.00 | 69 | 1016.6 |
| 20260902012310 | 29 | 104 | 0.0 | 0.0 | 0.00 | 0.00 | 0.00 | 68 | 1016.4 |
| 20260902011806 | 29 | 104 | 0.0 | 0.0 | 0.00 | 0.00 | 0.00 | 67 | 1016.4 |
| 20260902011306 | 29 | 150 | 0.0 | 0.0 | 0.00 | 0.00 | 0.00 | 66 | 1016.4 |
| 20260902010804 | 30 | 50 | 0.0 | 0.0 | 0.00 | 0.00 | 0.00 | 65 | 1016.5 |
| 20260902010300 | 30 | 50 | 0.0 | 0.0 | 0.00 | 0.00 | 0.00 | 64 | 1016.5 |
| 20260902005759 | 30 | 50 | 0.0 | 0.0 | 0.00 | 0.00 | 0.00 | 63 | 1016.2 |
| 20260902005254 | 30 | 50 | 0.0 | 0.0 | 0.00 | 0.00 | 0.00 | 63 | 1016.4 |
| 20260902004749 | 30 | 117 | 0.0 | 0.0 | 0.00 | 0.00 | 0.00 | 62 | 1016.1 |
| 20260902004244 | 31 | 66 | 0.0 | 3.2 | 0.00 | 0.00 | 0.00 | 61 | 1016.2 |
| 20260902003738 | 31 | 75 | 0.0 | 0.0 | 0.00 | 0.00 | 0.00 | 60 | 1016.2 |
| 20260902003234 | 31 | 62 | 0.0 | 1.6 | 0.00 | 0.00 | 0.00 | 60 | 1016.1 |
| 20260902002730 | 31 | 121 | 1.6 | 3.2 | 0.00 | 0.00 | 0.00 | 59 | 1016.1 |
| 20260902002229 | 31 | 44 | 0.0 | 1.6 | 0.00 | 0.00 | 0.00 | 58 | 1016.2 |
| 20260902001725 | 32 | 75 | 0.0 | 1.6 | 0.00 | 0.00 | 0.00 | 58 | 1016.2 |
| 20260902001225 | 32 | 76 | 0.0 | 1.6 | 0.00 | 0.00 | 0.00 | 57 | 1016.1 |
| 20260902000720 | 32 | 163 | 1.6 | 3.2 | 0.00 | 0.00 | 0.00 | 56 | 1016.4 |
| 20260902000215 | 32 | 117 | 0.0 | 3.2 | 0.00 | 0.00 | 0.00 | 56 | 1016.2 |
| 20260901235715 | 32 | 47 | 0.0 | 0.0 | 0.00 | 0.00 | 0.00 | 55 | 1016.4 |
| 20260901235210 | 32 | 142 | 1.6 | 3.2 | 0.00 | 0.00 | 0.00 | 55 | 1016.3 |
| 20260901234709 | 32 | 120 | 1.6 | 3.2 | 0.00 | 0.00 | 0.00 | 54 | 1016.2 |
| 20260901234204 | 33 | 170 | 0.0 | 3.2 | 0.00 | 0.00 | 0.00 | 54 | 1016.4 |
| 20260901233704 | 33 | 89 | 0.0 | 3.2 | 0.00 | 0.00 | 0.00 | 54 | 1016.3 |
| 20260901233200 | 33 | 139 | 1.6 | 3.2 | 0.00 | 0.00 | 0.00 | 53 | 1016.2 |
| 20260901232655 | 33 | 136 | 1.6 | 3.2 | 0.00 | 0.00 | 0.00 | 53 | 1016.3 |
| 20260901232150 | 33 | 255 | 0.0 | 4.8 | 0.00 | 0.00 | 0.00 | 52 | 1016.4 |
| 20260901231647 | 34 | 113 | 1.6 | 1.6 | 0.00 | 0.00 | 0.00 | 52 | 1016.2 |
| 20260901231143 | 34 | 278 | 1.6 | 3.2 | 0.00 | 0.00 | 0.00 | 51 | 1016.3 |
| 20260901230638 | 34 | 157 | 0.0 | 1.6 | 0.00 | 0.00 | 0.00 | 52 | 1016.3 |
| 20260901230138 | 35 | 260 | 0.0 | 4.8 | 0.00 | 0.00 | 0.00 | 49 | 1016.6 |
| 20260901225633 | 35 | 99 | 0.0 | 3.2 | 0.00 | 0.00 | 0.00 | 49 | 1016.3 |
| 20260901225133 | 36 | 304 | 0.0 | 3.2 | 0.00 | 0.00 | 0.00 | 49 | 1016.4 |
| 20260901224630 | 36 | 221 | 1.6 | 3.2 | 0.00 | 0.00 | 0.00 | 48 | 1016.2 |
| 20260901224126 | 36 | 163 | 3.2 | 3.2 | 0.00 | 0.00 | 0.00 | 46 | 1016.2 |
| 20260901223621 | 37 | 69 | 1.6 | 3.2 | 0.00 | 0.00 | 0.00 | 43 | 1016.2 |
| 20260901223116 | 37 | 153 | 1.6 | 3.2 | 0.00 | 0.00 | 0.00 | 43 | 1016.3 |
| 20260901222612 | 37 | 345 | 0.0 | 3.2 | 0.00 | 0.00 | 0.00 | 45 | 1016.3 |
| 20260901222108 | 37 | 258 | 1.6 | 3.2 | 0.00 | 0.00 | 0.00 | 43 | 1016.1 |
| 20260901221603 | 37 | 202 | 0.0 | 4.8 | 0.00 | 0.00 | 0.00 | 43 | 1016.3 |
| 20260901221059 | 37 | 141 | 1.6 | 3.2 | 0.00 | 0.00 | 0.00 | 43 | 1016.2 |
| 20260901220558 | 37 | 299 | 1.6 | 3.2 | 0.00 | 0.00 | 0.00 | 43 | 1016.1 |
| 20260901220057 | 37 | 266 | 3.2 | 4.8 | 0.00 | 0.00 | 0.00 | 43 | 1016.1 |
| 20260901215555 | 37 | 246 | 0.0 | 1.6 | 0.00 | 0.00 | 0.00 | 45 | 1016.3 |
| 20260901215050 | 37 | 153 | 3.2 | 3.2 | 0.00 | 0.00 | 0.00 | 43 | 1016.2 |
| 20260901214549 | 37 | 315 | 1.6 | 3.2 | 0.00 | 0.00 | 0.00 | 43 | 1016.1 |
| 20260901214043 | 37 | 261 | 0.0 | 4.8 | 0.00 | 0.00 | 0.00 | 43 | 1016.1 |
| 20260901213543 | 37 | 248 | 0.0 | 1.6 | 0.00 | 0.00 | 0.00 | 44 | 1016.1 |
| 20260901213043 | 37 | 118 | 0.0 | 3.2 | 0.00 | 0.00 | 0.00 | 44 | 1016.1 |
| 20260901212543 | 37 | 337 | 0.0 | 3.2 | 0.00 | 0.00 | 0.00 | 44 | 1016.2 |
| 20260901212041 | 37 | 257 | 1.6 | 6.4 | 0.00 | 0.00 | 0.00 | 44 | 1016.2 |
| 20260901211541 | 37 | 180 | 4.8 | 6.4 | 0.00 | 0.00 | 0.00 | 43 | 1016.4 |
| 20260901211037 | 37 | 279 | 3.2 | 6.4 | 0.00 | 0.00 | 0.00 | 43 | 1016.2 |
| 20260901210532 | 37 | 210 | 3.2 | 6.4 | 0.00 | 0.00 | 0.00 | 42 | 1016.4 |
| 20260901210028 | 37 | 70 | 0.0 | 4.8 | 0.00 | 0.00 | 0.00 | 43 | 1016.2 |
| 20260901205524 | 37 | 238 | 3.2 | 3.2 | 0.00 | 0.00 | 0.00 | 43 | 1016.2 |
| 20260901205024 | 37 | 263 | 3.2 | 4.8 | 0.00 | 0.00 | 0.00 | 43 | 1016.3 |
| 20260901204520 | 37 | 307 | 1.6 | 3.2 | 0.00 | 0.00 | 0.00 | 44 | 1016.2 |
| 20260901204014 | 37 | 143 | 1.6 | 4.8 | 0.00 | 0.00 | 0.00 | 43 | 1016.2 |
| 20260901203509 | 37 | 130 | 0.0 | 4.8 | 0.00 | 0.00 | 0.00 | 42 | 1016.2 |
| 20260901203004 | 37 | 267 | 1.6 | 4.8 | 0.00 | 0.00 | 0.00 | 43 | 1016.3 |
| 20260901202459 | 37 | 199 | 0.0 | 4.8 | 0.00 | 0.00 | 0.00 | 43 | 1016.4 |
| 20260901201955 | 37 | 191 | 3.2 | 6.4 | 0.00 | 0.00 | 0.00 | 44 | 1016.1 |
| 20260901201450 | 37 | 158 | 3.2 | 3.2 | 0.00 | 0.00 | 0.00 | 43 | 1016.1 |
| 20260901200950 | 37 | 251 | 1.6 | 6.4 | 0.00 | 0.00 | 0.00 | 44 | 1016.2 |
| 20260901200444 | 37 | 304 | 0.0 | 4.8 | 0.00 | 0.00 | 0.00 | 43 | 1016.2 |
| 20260901195943 | 37 | 245 | 0.0 | 4.8 | 0.00 | 0.00 | 0.00 | 44 | 1016.4 |
| 20260901195442 | 37 | 115 | 0.0 | 3.2 | 0.00 | 0.00 | 0.00 | 45 | 1016.2 |
| 20260901194937 | 37 | 264 | 1.6 | 4.8 | 0.00 | 0.00 | 0.00 | 45 | 1016.4 |
| 20260901194432 | 37 | 222 | 0.0 | 11.3 | 0.00 | 0.00 | 0.00 | 46 | 1016.4 |
| 20260901193928 | 37 | 315 | 0.0 | 3.2 | 0.00 | 0.00 | 0.00 | 46 | 1016.4 |
| 20260901193427 | 37 | 120 | 0.0 | 4.8 | 0.00 | 0.00 | 0.00 | 47 | 1016.6 |
| 20260901192927 | 37 | 332 | 0.0 | 4.8 | 0.00 | 0.00 | 0.00 | 47 | 1016.3 |
| 20260901192423 | 37 | 137 | 1.6 | 6.4 | 0.00 | 0.00 | 0.00 | 47 | 1016.7 |
| 20260901191919 | 37 | 80 | 1.6 | 3.2 | 0.00 | 0.00 | 0.00 | 48 | 1016.5 |
| 20260901191415 | 37 | 296 | 9.7 | 9.7 | 0.00 | 0.00 | 0.00 | 45 | 1016.8 |
| 20260901190911 | 37 | 269 | 0.0 | 3.2 | 0.00 | 0.00 | 0.00 | 46 | 1016.7 |
| 20260901190411 | 36 | 293 | 1.6 | 3.2 | 0.00 | 0.00 | 0.00 | 48 | 1016.7 |
| 20260901185909 | 36 | 290 | 3.2 | 4.8 | 0.00 | 0.00 | 0.00 | 45 | 1016.8 |
| 20260901185408 | 36 | 190 | 0.0 | 4.8 | 0.00 | 0.00 | 0.00 | 44 | 1016.8 |
| 20260901184903 | 36 | 301 | 0.0 | 3.2 | 0.00 | 0.00 | 0.00 | 45 | 1016.8 |
| 20260901184358 | 36 | 274 | 3.2 | 4.8 | 0.00 | 0.00 | 0.00 | 45 | 1016.9 |
| 20260901183853 | 36 | 117 | 1.6 | 6.4 | 0.00 | 0.00 | 0.00 | 45 | 1016.9 |
| 20260901183353 | 36 | 207 | 1.6 | 3.2 | 0.00 | 0.00 | 0.00 | 46 | 1016.9 |
| 20260901182849 | 36 | 255 | 3.2 | 4.8 | 0.00 | 0.00 | 0.00 | 46 | 1017.0 |
| 20260901182349 | 36 | 297 | 3.2 | 6.4 | 0.00 | 0.00 | 0.00 | 48 | 1017.1 |
| 20260901181844 | 36 | 291 | 3.2 | 9.7 | 0.00 | 0.00 | 0.00 | 48 | 1017.1 |
| 20260901181345 | 35 | 265 | 1.6 | 6.4 | 0.00 | 0.00 | 0.00 | 46 | 1017.0 |
| 20260901180843 | 35 | 83 | 1.6 | 6.4 | 0.00 | 0.00 | 0.00 | 46 | 1017.1 |
| 20260901180342 | 35 | 107 | 0.0 | 6.4 | 0.00 | 0.00 | 0.00 | 48 | 1017.1 |
| 20260901175841 | 35 | 194 | 4.8 | 4.8 | 0.00 | 0.00 | 0.00 | 46 | 1017.2 |
| 20260901175336 | 35 | 284 | 3.2 | 4.8 | 0.00 | 0.00 | 0.00 | 48 | 1017.3 |
| 20260901174831 | 35 | 220 | 1.6 | 8.0 | 0.00 | 0.00 | 0.00 | 50 | 1017.2 |
| 20260901174327 | 34 | 309 | 0.0 | 4.8 | 0.00 | 0.00 | 0.00 | 49 | 1017.0 |
| 20260901173823 | 34 | 151 | 3.2 | 4.8 | 0.00 | 0.00 | 0.00 | 48 | 1017.4 |
| 20260901173318 | 34 | 280 | 3.2 | 3.2 | 0.00 | 0.00 | 0.00 | 51 | 1017.3 |
| 20260901172814 | 34 | 269 | 0.0 | 3.2 | 0.00 | 0.00 | 0.00 | 51 | 1017.4 |
| 20260901172313 | 33 | 339 | 0.0 | 3.2 | 0.00 | 0.00 | 0.00 | 53 | 1017.6 |
| 20260901171811 | 33 | 133 | 0.0 | 4.8 | 0.00 | 0.00 | 0.00 | 53 | 1017.5 |
| 20260901171311 | 33 | 177 | 0.0 | 3.2 | 0.00 | 0.00 | 0.00 | 54 | 1017.5 |